Find Starlink 32475

NORAD ID: 61728 Int'l Des: 2024-196 Owner: SPXS Country: US Constellation: starlink operational
LEOCIRCULAR

リアルタイム位置

3D地球を読み込み中...

Starlink 32475について

説明を読み込み中...

次回通過

Passes for default location (London). Set your location on the main map for personalized predictions.

高度履歴

Loading altitude history...

軌道要素

1 61728U 24196X 26120.65395859 -.00001763 00000-0 -47425-4 0 9992
2 61728 53.1591 219.8865 0001520 94.6019 265.5155 15.30178907 85111
Epoch: Apr 30, 2026 • Age: 17 hours

現在のステータス

高度 489.4 km
速度 7.62 km/s
衛星直下点 -40.40°S, 90.91°E
打ち上げ日 Oct 30, 2024
運用期間 1.4 years
タイプ internet

技術仕様

分類 Payload
質量 730.00 kg
乾燥質量 700.00 kg
総質量 730.00 kg
長さ 0.30 m
直径 4.10 m
スパン 29.00 m
形状 Box + pan
製造者 SPXS
バスタイプ Starlink V2M
フェーズステータス In Orbit
所有者/国 SPXS/US

Most Searched